TimeCST,TemperatureF,Dew PointF,Humidity,Sea Level PressureIn,VisibilityMPH,Wind Direction,Wind SpeedMPH,Gust SpeedMPH,PrecipitationIn,Events,Conditions,WindDirDegrees,DateUTC
12:15 AM,41.0,28.4,61,29.64,10.0,WSW,29.9,36.8,N/A,,Clear,240,2012-12-15 06:15:00
12:35 AM,39.2,28.4,65,29.65,10.0,SW,28.8,33.4,N/A,,Clear,230,2012-12-15 06:35:00
12:55 AM,39.2,28.4,65,29.65,10.0,SW,31.1,36.8,N/A,,Clear,230,2012-12-15 06:55:00
1:15 AM,39.2,28.4,65,29.66,10.0,WSW,31.1,39.1,N/A,,Clear,240,2012-12-15 07:15:00
1:35 AM,39.2,26.6,61,29.66,10.0,WSW,29.9,39.1,N/A,,Clear,240,2012-12-15 07:35:00
1:55 AM,39.2,28.4,65,29.67,10.0,WSW,27.6,33.4,N/A,,Clear,240,2012-12-15 07:55:00
2:15 AM,37.4,26.6,65,29.68,10.0,WSW,24.2,34.5,N/A,,Clear,240,2012-12-15 08:15:00
2:35 AM,37.4,26.6,65,29.68,10.0,WSW,23.0,-,N/A,,Clear,240,2012-12-15 08:35:00
2:55 AM,37.4,26.6,65,29.69,10.0,WSW,24.2,29.9,N/A,,Clear,250,2012-12-15 08:55:00
3:15 AM,37.4,26.6,65,29.71,10.0,WSW,24.2,29.9,N/A,,Clear,250,2012-12-15 09:15:00
3:35 AM,37.4,26.6,65,29.71,10.0,WSW,24.2,31.1,N/A,,Clear,250,2012-12-15 09:35:00
3:55 AM,37.4,26.6,65,29.71,10.0,WSW,20.7,27.6,N/A,,Clear,250,2012-12-15 09:55:00
4:15 AM,35.6,26.6,70,29.71,10.0,WSW,16.1,-,N/A,,Clear,250,2012-12-15 10:15:00
4:35 AM,33.8,26.6,75,29.73,10.0,SW,12.7,-,N/A,,Clear,220,2012-12-15 10:35:00
4:55 AM,33.8,26.6,75,29.72,10.0,WSW,15.0,-,N/A,,Clear,240,2012-12-15 10:55:00
5:15 AM,33.8,26.6,75,29.72,10.0,WSW,13.8,-,N/A,,Clear,250,2012-12-15 11:15:00
5:35 AM,33.8,26.6,75,29.72,10.0,WSW,13.8,-,N/A,,Clear,250,2012-12-15 11:35:00
5:55 AM,33.8,26.6,75,29.73,10.0,WSW,13.8,-,N/A,,Clear,250,2012-12-15 11:55:00
6:15 AM,33.8,26.6,75,29.74,10.0,WSW,13.8,-,N/A,,Clear,250,2012-12-15 12:15:00
6:35 AM,33.8,26.6,75,29.74,10.0,WSW,13.8,-,N/A,,Clear,250,2012-12-15 12:35:00
6:55 AM,33.8,26.6,75,29.75,10.0,WSW,13.8,-,N/A,,Clear,240,2012-12-15 12:55:00
7:15 AM,33.8,26.6,75,29.76,10.0,SW,17.3,-,N/A,,Clear,230,2012-12-15 13:15:00
7:35 AM,33.8,26.6,75,29.77,10.0,SW,15.0,-,N/A,,Clear,230,2012-12-15 13:35:00
7:55 AM,33.8,26.6,75,29.77,10.0,SW,16.1,-,N/A,,Clear,230,2012-12-15 13:55:00
8:15 AM,33.8,28.4,81,29.78,10.0,WSW,15.0,-,N/A,,Clear,240,2012-12-15 14:15:00
8:35 AM,33.8,28.4,81,29.78,10.0,WSW,17.3,-,N/A,,Clear,240,2012-12-15 14:35:00
8:55 AM,35.6,28.4,75,29.79,10.0,WSW,18.4,25.3,N/A,,Clear,240,2012-12-15 14:55:00
9:15 AM,37.4,28.4,70,29.80,10.0,WSW,17.3,-,N/A,,Clear,250,2012-12-15 15:15:00
9:35 AM,39.2,28.4,65,29.78,10.0,WSW,11.5,-,N/A,,Clear,250,2012-12-15 15:35:00
9:55 AM,41.0,28.4,61,29.78,10.0,WSW,13.8,-,N/A,,Clear,250,2012-12-15 15:55:00
10:15 AM,42.8,28.4,57,29.78,10.0,WSW,11.5,-,N/A,,Clear,250,2012-12-15 16:15:00
10:35 AM,44.6,30.2,57,29.79,10.0,WSW,13.8,-,N/A,,Clear,250,2012-12-15 16:35:00
10:55 AM,46.4,30.2,53,29.80,10.0,WSW,17.3,-,N/A,,Clear,240,2012-12-15 16:55:00
11:15 AM,48.2,30.2,50,29.81,10.0,WSW,19.6,23.0,N/A,,Clear,240,2012-12-15 17:15:00
11:35 AM,46.4,30.2,53,29.81,10.0,WSW,17.3,-,N/A,,Clear,240,2012-12-15 17:35:00
11:55 AM,46.4,30.2,53,29.80,10.0,WSW,15.0,-,N/A,,Clear,250,2012-12-15 17:55:00
12:15 PM,50.0,30.2,47,29.78,10.0,SW,12.7,-,N/A,,Clear,230,2012-12-15 18:15:00
12:35 PM,50.0,30.2,47,29.76,10.0,WSW,15.0,-,N/A,,Clear,240,2012-12-15 18:35:00
12:55 PM,51.8,30.2,44,29.77,10.0,WSW,21.9,-,N/A,,Clear,240,2012-12-15 18:55:00
1:15 PM,51.8,30.2,44,29.74,10.0,WSW,18.4,-,N/A,,Clear,240,2012-12-15 19:15:00
1:35 PM,51.8,28.4,41,29.74,10.0,SW,20.7,-,N/A,,Clear,230,2012-12-15 19:35:00
1:55 PM,51.8,28.4,41,29.73,10.0,WSW,21.9,-,N/A,,Clear,240,2012-12-15 19:55:00
2:15 PM,51.8,26.6,38,29.72,10.0,SW,19.6,26.5,N/A,,Clear,230,2012-12-15 20:15:00
2:35 PM,51.8,28.4,41,29.72,10.0,WSW,21.9,26.5,N/A,,Clear,240,2012-12-15 20:35:00
2:55 PM,53.6,28.4,38,29.72,10.0,WSW,20.7,-,N/A,,Clear,240,2012-12-15 20:55:00
3:15 PM,53.6,28.4,38,29.71,10.0,WSW,18.4,25.3,N/A,,Clear,250,2012-12-15 21:15:00
3:35 PM,55.4,28.4,36,29.71,10.0,WSW,19.6,-,N/A,,Clear,250,2012-12-15 21:35:00
3:55 PM,53.6,28.4,38,29.71,10.0,WSW,20.7,24.2,N/A,,Clear,240,2012-12-15 21:55:00
4:15 PM,53.6,26.6,35,29.71,10.0,WSW,18.4,-,N/A,,Clear,250,2012-12-15 22:15:00
4:35 PM,53.6,28.4,38,29.72,10.0,WSW,16.1,-,N/A,,Clear,240,2012-12-15 22:35:00
4:55 PM,51.8,28.4,41,29.72,10.0,SW,10.4,-,N/A,,Clear,230,2012-12-15 22:55:00
5:15 PM,51.8,26.6,38,29.72,10.0,WSW,13.8,-,N/A,,Clear,250,2012-12-15 23:15:00
5:35 PM,50.0,26.6,40,29.72,10.0,West,15.0,-,N/A,,Clear,260,2012-12-15 23:35:00
5:55 PM,46.4,26.6,46,29.73,10.0,WSW,12.7,-,N/A,,Clear,250,2012-12-15 23:55:00
6:15 PM,42.8,28.4,57,29.74,10.0,WSW,11.5,-,N/A,,Clear,240,2012-12-16 00:15:00
6:35 PM,42.8,28.4,57,29.74,10.0,WSW,12.7,-,N/A,,Clear,240,2012-12-16 00:35:00
6:55 PM,42.8,28.4,57,29.75,10.0,SW,13.8,-,N/A,,Clear,230,2012-12-16 00:55:00
7:15 PM,42.8,28.4,57,29.76,10.0,SW,12.7,-,N/A,,Clear,220,2012-12-16 01:15:00
7:35 PM,41.0,28.4,61,29.76,10.0,SW,13.8,-,N/A,,Clear,220,2012-12-16 01:35:00
7:55 PM,41.0,28.4,61,29.76,10.0,SW,13.8,-,N/A,,Clear,220,2012-12-16 01:55:00
8:15 PM,37.4,28.4,70,29.76,10.0,SW,12.7,-,N/A,,Clear,230,2012-12-16 02:15:00
8:35 PM,37.4,28.4,70,29.76,10.0,SW,13.8,-,N/A,,Clear,230,2012-12-16 02:35:00
8:55 PM,37.4,28.4,70,29.75,10.0,WSW,15.0,-,N/A,,Clear,240,2012-12-16 02:55:00
9:15 PM,39.2,26.6,61,29.75,10.0,WSW,17.3,-,N/A,,Clear,240,2012-12-16 03:15:00
9:35 PM,41.0,26.6,57,29.76,10.0,WSW,21.9,-,N/A,,Clear,240,2012-12-16 03:35:00
9:55 PM,41.0,26.6,57,29.76,10.0,WSW,19.6,-,N/A,,Clear,240,2012-12-16 03:55:00
10:15 PM,39.2,26.6,61,29.76,10.0,WSW,17.3,-,N/A,,Clear,240,2012-12-16 04:15:00
10:35 PM,39.2,26.6,61,29.76,10.0,WSW,19.6,-,N/A,,Clear,240,2012-12-16 04:35:00
10:55 PM,37.4,26.6,65,29.76,10.0,WSW,20.7,-,N/A,,Clear,250,2012-12-16 04:55:00
11:15 PM,37.4,28.4,70,29.76,10.0,WSW,18.4,-,N/A,,Clear,250,2012-12-16 05:15:00
11:35 PM,37.4,28.4,70,29.76,10.0,WSW,17.3,-,N/A,,Clear,250,2012-12-16 05:35:00
11:55 PM,37.4,28.4,70,29.76,10.0,WSW,16.1,-,N/A,,Clear,250,2012-12-16 05:55:00